STARLINK-5929, 55959

Orbit data source: Space-Track

STARLINK-5929, 55959 is a payload satellite owned by SpaceX/Seattle (US) in LEO that was launched on Fri, 17 Mar 2023 UTC via an FALCON 9 launch vehicle from the Air Force Western Test Range (AFWTR). Payload-class satellites include a variety of spacecraft equipped with specific instruments for various scientific and technological missions. These include communications satellites like Starlink; space stations such as the ISS; scientific satellites like the Hubble; Earth observation satellites from companies like Planet Labs, Umbra, and HawkEye 360; GPS; miniature CubeSats for education and research; and military/defense satellites.

Loading next visibility...
Identifier
55959, 2023-037AX
Orbit
LEO
Country
Flag of USUS
Related business
Manufacturer
SpaceX/Seattle
Mission
Operational Commercial Communications
Bus & Motor
STARLINK, Unknown motor
Mass
305 kg wet, ~290 kg dry
Launch date (UTC)
2023-03-17 (3 years ago)
Launch vehicle
FALCON 9
Launch site
Air Force Western Test Range (AFWTR)
Object type
Payload
Rocket body
Debris
Shape & HBR
Box + 1 Pan, 10.1 m
Radar Cross Section
11.087 m², Large (>1 m²)

Expand to show TLE details & history
Last TLE update: 18 hours ago

TLE from 18 hours ago
0 STARLINK-5929
1 55959U 23037AX  25349.77338862  .00001248  00000-0  11238-3 0  9998
2 55959  69.9997 116.0268 0003148 271.6038  88.4761 14.98318097151901
Epoch: 2025-12-15T18:33Z
TLE epoch observation values (Epoch: 2025-12-15T18:33:40.776Z)
Latitude
0.00001°
Longitude
112.93976°
Altitude
574.459 km
Speed
7.574 km/s
True Right ascension
07h 44m 06s
True Declination
0° 00' 00"
Sunlit
Object was in full shadow at epoch
Visualization orbit readout
Latitude
Unknown
Longitude
Unknown
Altitude
Unknown
Speed
Unknown
Apparent Right ascension
Unknown
Apparent Declination
Unknown
Sunlit
N/A
Visualization observer readout
Local Sidereal Time
10:48:57
Azimuth
Unknown
Elevation
Unknown
Doppler factor
Unknown
Orbital elements
Apogee altitude
572.228 km
Perigee altitude
567.854 km
Semi-major axis
6,948.178 km
Eccentricity
0.00031
Inclination
69.9997°
RAAN
116.0268°
Arg. of periapsis
271.6038°
True anomaly
88.51216°
Mean anomaly
88.4761°
Eccentric anomaly
88.49413°
Mean motion
3.74746 °/min
Orbital period
96.07 mins
BSTAR
0.00011238
Loading maneuver chart data...
Computing Atmospheric mass density...
Loading historical data...
Loading historical data...
Loading historical data...
Loading historical data...
Loading historical data...
Loading historical data...
Loading historical data...

Documentation

Showing up to 5 results
|